パンスターズ彗星

C/2017 T2 ( PanSTARRS )

English version
Home page
Updated on September 9, 2020

---------------------------------------------------------------------

・ プロフィール

発見日 2017年10月2日
発見光度 19.9等
発見者 Pan-STARRS 1 telescope (Haleakala)

・ 写真集

・ 軌道要素

Epoch 2020 Apr. 21.0 TT = JDT 2458960.5
T 2020 May 4.95288 TT                                   Rudenko
q   1.6151244            (2000.0)            P               Q
z  +0.0002283      Peri.   92.99385     -0.50995508     -0.40635384
 +/-0.0000002      Node    64.37790     -0.16277157     -0.81987984
e   0.9996312      Incl.   57.23054     +0.84466043     -0.40332816
From 4811 observations 2017 Sept. 15-2020 July 19, mean residual 0".6.

・ 星図

・ 光度変化

        m1 = -4.5 + 5 logΔ + 20.0 log r          [    ,-820]  (              〜2018年 2月 4日)
        m1 =  5.2 + 5 logΔ +  9.5 log r(t + 15)  [-820,    ]  (2018年 2月 4日〜              )

---------------------------------------------------------------------

軌道要素はM.P.E.C. 2020-P19に掲載されたものです。
星図はステラナビゲータ Ver.10 (アストロアーツ) で作成したものです。
光度グラフはComet for Windowsで作成したものです。

---------------------------------------------------------------------

Copyright(C) Seiichi Yoshida (comet@aerith.net). All rights reserved.